{"data":{"norad_id":57148,"intl_designator":"2023-090AZ","name":"STARLINK-5788","alt_names":[],"object_type":"PAYLOAD","status":"ACTIVE","operator":null,"country":"US","launch_date":"2023-06-23","launch_site_code":"AFETR","launch_vehicle":null,"mission":null,"orbit_class":"UNKNOWN","rcs_meters":null,"size_class":null,"mass_kg":null,"dimensions":null,"purposes":["comms"],"wikipedia_slug":null,"has_3d_model":false,"image_url":null,"decayed_at":null,"tle_current":{"epoch":"2026-05-25T03:40:44.027040Z","epoch_age_seconds":65755,"freshness":"FRESH","line1":"1 57148U 23090AZ  26145.15328735  .00000258  00000+0  18905-4 0  9992","line2":"2 57148  43.0021 191.8350 0001045 290.6723  69.4016 15.27575538162040","mean_motion":15.27575538,"eccentricity":0.0001045,"inclination_deg":43.0021,"raan_deg":191.835,"arg_perigee_deg":290.6723,"mean_anomaly_deg":69.4016,"bstar":1.8905e-5,"rev_number":16204,"period_min":94.267024063854,"perigee_km":482.34546156212,"apogee_km":483.77945224862,"semimajor_km":6861.1994569054,"source":"CELESTRAK","updated_at":"2026-05-25T13:38:18.249401Z"}}}